This is the latest recevied weather packets stored in our database for station/object KC8YYF. If no packets are shown the sender has not sent any weather packets the latest 10 day(s).
| Time | Temp. | Humidity | Pressure | Rain* | Wind** | Luminosity | Snow |
|---|---|---|---|---|---|---|---|
| 1778079348 | 8.89° C | 91% | 1011.7 hPa | 0 mm | - | 71 W/m² | - |
| 1778079046 | 8.89° C | 92% | 1011.7 hPa | 0 mm | - | 69 W/m² | - |
| 1778078742 | 8.89° C | 92% | 1011.5 hPa | 0 mm | - | 100 W/m² | - |
| 1778078439 | 8.89° C | 94% | 1011.6 hPa | 0 mm | - | 86 W/m² | - |
| 1778078137 | 8.89° C | 94% | 1011.7 hPa | 0 mm | - | 57 W/m² | - |
| 1778077835 | 8.33° C | 94% | 1011.4 hPa | 0 mm | - | 37 W/m² | - |
| 1778077533 | 8.33° C | 96% | 1011.3 hPa | 0 mm | - | 43 W/m² | - |
| 1778077231 | 8.89° C | 97% | 1011.1 hPa | 0 mm | - | 54 W/m² | - |
| 1778076928 | 8.89° C | 98% | 1011.3 hPa | 0 mm | - | 49 W/m² | - |
| 1778076626 | 8.89° C | 98% | 1011.4 hPa | 0 mm | - | 49 W/m² | - |
| 1778076324 | 8.89° C | 98% | 1011 hPa | 0 mm | - | 57 W/m² | - |
| 1778076021 | 8.89° C | 99% | 1010.8 hPa | 0 mm | - | 38 W/m² | - |
| 1778075718 | 8.89° C | 99% | 1010.6 hPa | 0 mm | - | 57 W/m² | - |
| 1778075414 | 8.89° C | 99% | 1010.9 hPa | 0 mm | - | 42 W/m² | - |
| 1778075110 | 8.89° C | 99% | 1010.6 hPa | 0 mm | - | 83 W/m² | - |
| 1778074806 | 8.33° C | 99% | 1010.8 hPa | 0 mm | - | 71 W/m² | - |
| 1778074504 | 7.78° C | 99% | 1010.5 hPa | 0 mm | - | 50 W/m² | - |
| 1778074200 | 8.33° C | 99% | 1010.5 hPa | 0 mm | - | 73 W/m² | - |
| 1778073897 | 8.33° C | 99% | 1010.4 hPa | 0 mm | - | 64 W/m² | - |
| 1778073595 | 8.89° C | 99% | 1010.5 hPa | 0 mm | - | 43 W/m² | - |
| 1778073292 | 8.33° C | 99% | 1010.2 hPa | 0 mm | - | 89 W/m² | - |
| 1778072988 | 8.33° C | 99% | 1010.4 hPa | 0 mm | - | 67 W/m² | - |
| 1778072685 | 8.33° C | 99% | 1010.3 hPa | 0 mm | - | 66 W/m² | - |
| 1778072383 | 7.78° C | 99% | 1010.3 hPa | 0.51 mm | - | 50 W/m² | - |
| 1778072081 | 7.78° C | 99% | 1010.5 hPa | 0.51 mm | - | 44 W/m² | - |
* Rain latest hour (hover to see other rain measurements)
** Current wind speed in m/s (hover to see current wind gust speed)